Change the Weather History Date:

Thursday, May 15, 2014

  Actual Average Record
Temperature  
Mean Temperature 56 °F -  
Max Temperature 80 °F 84 °F 89 °F (2013)
Min Temperature 33 °F 58 °F 33 °F (2014)
Degree Days  
Heating Degree Days 8    
Growing Degree Days 6 (Base 50)    
Moisture  
Dew Point 18 °F    
Average Humidity 27    
Maximum Humidity 65    
Minimum Humidity 9    
Precipitation  
Precipitation 0.00 in - - ()
Sea Level Pressure  
Sea Level Pressure 30.27 in    
Wind  
Wind Speed 3 mph (SSW)    
Max Wind Speed 15 mph    
Max Gust Speed 20 mph    
Visibility 10 miles    
Events      
Averages and records for this station are not official NWS values.
T = Trace of Precipitation, MM = Missing Value Source: NWS Daily Summary

Daily Weather History Graph

Daily Weather History Graph

Search for Another Location

Airport or City:

Trip Planner

Search our weather history database for the weather conditions in past years. The results will help you decide how hot, cold, wet, or windy it might be!

Date:

Astronomy

May. 15, 2014 Rise Set
Actual Time 6:49 AM CDT 8:32 PM CDT
Civil Twilight 6:23 AM CDT 8:59 PM CDT
Nautical Twilight 5:51 AM CDT 9:31 PM CDT
Astronomical Twilight 5:18 AM CDT 10:04 PM CDT
Moon 9:42 PM CDT (5/15) 7:37 AM CDT (5/15)
Length of Visible Light 14h 35m
Length of Day
13h 42m
Full, 99% of the Moon is Illuminated
May 15
Full
May 21
Last Quarter
May 28
New
Jun 5
First Quarter
Jun 12
Full

Hourly Weather History & Observations

Time (CDT) Temp. Windchill Dew Point Humidity Pressure Visibility Wind Dir Wind Speed Gust Speed Precip Events Conditions
12:15 AM 44.6 °F - 28.4 °F 53% 30.34 in 10.0 mi Calm Calm - N/A   Clear
12:35 AM 44.6 °F - 24.8 °F 46% 30.34 in 10.0 mi Calm Calm - N/A   Clear
12:55 AM 42.8 °F - 23.0 °F 46% 30.34 in 10.0 mi Calm Calm - N/A   Clear
1:15 AM 42.8 °F - 19.4 °F 39% 30.34 in 10.0 mi Calm Calm - N/A   Clear
1:35 AM 41.0 °F - 19.4 °F 42% 30.33 in 10.0 mi Calm Calm - N/A   Clear
1:55 AM 41.0 °F 38.0 °F 17.6 °F 39% 30.33 in 10.0 mi NNE 4.6 mph - N/A   Clear
2:15 AM 39.2 °F - 21.2 °F 49% 30.33 in 10.0 mi Calm Calm - N/A   Clear
2:35 AM 39.2 °F - 19.4 °F 45% 30.33 in 10.0 mi Calm Calm - N/A   Clear
2:55 AM 39.2 °F - 17.6 °F 42% 30.33 in 10.0 mi Calm Calm - N/A   Clear
3:15 AM 39.2 °F 35.9 °F 19.4 °F 45% 30.33 in 10.0 mi NNE 4.6 mph - N/A   Clear
3:35 AM 37.4 °F 34.9 °F 21.2 °F 52% 30.32 in 10.0 mi NNE 3.5 mph - N/A   Clear
3:55 AM 37.4 °F - 17.6 °F 45% 30.32 in 10.0 mi Calm Calm - N/A   Clear
4:15 AM 37.4 °F 34.9 °F 19.4 °F 48% 30.32 in 10.0 mi NNE 3.5 mph - N/A   Clear
4:35 AM 35.6 °F 31.7 °F 17.6 °F 48% 30.32 in 10.0 mi NNE 4.6 mph - N/A   Clear
5:15 AM 35.6 °F - 23.0 °F 60% 30.32 in 10.0 mi Calm Calm - N/A   Clear
5:35 AM 33.8 °F - 23.0 °F 65% 30.32 in 10.0 mi Calm Calm - N/A   Clear
5:55 AM 33.8 °F - 19.4 °F 56% 30.32 in 10.0 mi Calm Calm - N/A   Clear
6:15 AM 33.8 °F - 17.6 °F 52% 30.32 in 10.0 mi Calm Calm - N/A   Clear
6:35 AM 33.8 °F 30.8 °F 17.6 °F 52% 30.32 in 10.0 mi NNE 3.5 mph - N/A   Clear
6:55 AM 33.8 °F - 19.4 °F 56% 30.32 in 10.0 mi Calm Calm - N/A   Clear
7:15 AM 33.8 °F - 21.2 °F 60% 30.33 in 10.0 mi Calm Calm - N/A   Clear
7:35 AM 35.6 °F - 19.4 °F 52% 30.33 in 10.0 mi Calm Calm - N/A   Clear
7:55 AM 37.4 °F - 19.4 °F 48% 30.33 in 10.0 mi Calm Calm - N/A   Clear
8:15 AM 42.8 °F - 19.4 °F 39% 30.34 in 10.0 mi Calm Calm - N/A   Clear
8:35 AM 46.4 °F - 23.0 °F 40% 30.34 in 10.0 mi Calm Calm - N/A   Clear
8:55 AM 55.4 °F - 23.0 °F 29% 30.34 in 10.0 mi South 5.8 mph - N/A   Clear
9:15 AM 60.8 °F - 21.2 °F 22% 30.34 in 10.0 mi South 6.9 mph - N/A   Clear
9:35 AM 64.4 °F - 21.2 °F 19% 30.34 in 10.0 mi SSW 4.6 mph - N/A   Clear
9:55 AM 69.8 °F - 19.4 °F 15% 30.34 in 10.0 mi SSW 12.7 mph 19.6 mph N/A   Clear
10:15 AM 69.8 °F - 19.4 °F 15% 30.33 in 10.0 mi SSW 15.0 mph 18.4 mph N/A   Clear
10:55 AM 71.6 °F - 17.6 °F 13% 30.33 in 10.0 mi SW 13.8 mph 19.6 mph N/A   Clear
11:15 AM 73.4 °F - 17.6 °F 12% 30.33 in 10.0 mi SW 10.4 mph - N/A   Clear
11:35 AM 73.4 °F - 17.6 °F 12% 30.33 in 10.0 mi SW 6.9 mph - N/A   Clear
12:35 PM 77.0 °F - 19.4 °F 12% 30.31 in 10.0 mi SW 5.8 mph - N/A   Clear
12:55 PM 77.0 °F - 19.4 °F 12% 30.30 in 10.0 mi SW 8.1 mph - N/A   Clear
1:15 PM 77.0 °F - 17.6 °F 11% 30.29 in 10.0 mi SSE 8.1 mph 16.1 mph N/A   Clear
2:15 PM 78.8 °F - 17.6 °F 10% 30.26 in 10.0 mi SSE 4.6 mph 16.1 mph N/A   Clear
2:35 PM 78.8 °F - 17.6 °F 10% 30.26 in 10.0 mi South 6.9 mph - N/A   Clear
2:55 PM 78.8 °F - 17.6 °F 10% 30.25 in 10.0 mi South 8.1 mph - N/A   Clear
3:15 PM 78.8 °F - 17.6 °F 10% 30.24 in 10.0 mi South 5.8 mph - N/A   Clear
3:35 PM 78.8 °F - 17.6 °F 10% 30.23 in 10.0 mi WSW 3.5 mph - N/A   Clear
3:55 PM 80.6 °F - 17.6 °F 10% 30.22 in 10.0 mi WSW 8.1 mph - N/A   Clear
4:15 PM 80.6 °F - 17.6 °F 10% 30.21 in 10.0 mi SSW 8.1 mph - N/A   Clear
4:35 PM 80.6 °F - 17.6 °F 10% 30.20 in 10.0 mi SSW 9.2 mph - N/A   Clear
4:55 PM 80.6 °F - 17.6 °F 10% 30.19 in 10.0 mi Calm Calm - N/A   Clear
5:15 PM 80.6 °F - 17.6 °F 10% 30.19 in 10.0 mi SW 9.2 mph 17.3 mph N/A   Clear
5:35 PM 80.6 °F - 17.6 °F 10% 30.18 in 10.0 mi SSW 9.2 mph - N/A   Clear
5:55 PM 80.6 °F - 17.6 °F 10% 30.18 in 10.0 mi SSW 3.5 mph - N/A   Clear
6:15 PM 80.6 °F - 17.6 °F 10% 30.18 in 10.0 mi SW 10.4 mph - N/A   Clear
6:35 PM 80.6 °F - 15.8 °F 9% 30.18 in 10.0 mi WSW 6.9 mph - N/A   Clear
6:55 PM 78.8 °F - 15.8 °F 9% 30.17 in 10.0 mi SSW 4.6 mph - N/A   Clear
7:15 PM 78.8 °F - 14.0 °F 9% 30.17 in 10.0 mi SSW 4.6 mph - N/A   Clear
7:35 PM 78.8 °F - 14.0 °F 9% 30.17 in 10.0 mi SSW 6.9 mph - N/A   Clear
7:55 PM 77.0 °F - 14.0 °F 9% 30.18 in 10.0 mi SSW 8.1 mph - N/A   Clear
8:15 PM 75.2 °F - 14.0 °F 10% 30.18 in 10.0 mi SSW 6.9 mph - N/A   Clear
8:35 PM 71.6 °F - 14.0 °F 11% 30.18 in 10.0 mi South 6.9 mph - N/A   Clear
8:55 PM 69.8 °F - 15.8 °F 13% 30.19 in 10.0 mi South 6.9 mph - N/A   Clear
9:15 PM 68.0 °F - 15.8 °F 13% 30.19 in 10.0 mi South 4.6 mph - N/A   Clear
9:35 PM 68.0 °F - 15.8 °F 13% 30.19 in 10.0 mi South 6.9 mph - N/A   Clear
9:55 PM 64.4 °F - 15.8 °F 15% 30.20 in 10.0 mi South 5.8 mph - N/A   Clear
10:15 PM 62.6 °F - 17.6 °F 18% 30.21 in 10.0 mi South 5.8 mph - N/A   Clear
10:35 PM 62.6 °F - 17.6 °F 18% 30.21 in 10.0 mi South 6.9 mph - N/A   Clear
10:55 PM 60.8 °F - 17.6 °F 19% 30.21 in 10.0 mi SSW 5.8 mph - N/A   Clear
11:15 PM 59.0 °F - 15.8 °F 19% 30.21 in 10.0 mi SSW 5.8 mph - N/A   Clear
11:35 PM 59.0 °F - 17.6 °F 20% 30.20 in 10.0 mi SSW 4.6 mph - N/A   Clear
11:55 PM 57.2 °F - 17.6 °F 21% 30.20 in 10.0 mi SSW 3.5 mph - N/A   Clear